[[{"header":{"parameterUnit":"m.s-1","parameterCategory":2,"la1":30.2991,"la2":30.254,"lo1":-89.0895,"lo2":-89.0444,"dy":0.0017,"dx":0.0017,"nx":28,"ny":28,"refTime":"2024-04-12T21:00:00:Z","depth":"0","parameterNumber":2,"parameterNumberName":"U-component_of_CURRENTS"},"data":[0,0,0,0,0,0,0,0,0,0,0,0,0,0,0,0,0,0,0,0,0,0,0,0,0,0,0,0,0,0,0,0,0,0,0,0,0,0,0,0,0,0,0,0,0,0,0,0,0,0,0,0,0,0,0,0,0,0,-0.3268,-0.3268,0,-0.3202,-0.3201,-0.32,-0.3176,-0.3177,-0.3178,-0.3179,-0.3073,-0.3069,-0.3065,0,0,0,0,0,0,0,0,0,0,0,0,0,-0.3277,-0.3277,-0.3268,-0.3268,-0.3268,-0.3203,-0.3201,-0.3199,-0.3176,-0.3177,-0.3178,-0.3179,-0.3074,-0.307,-0.3065,0,0,0,0,0,0,0,0,0,0,0,0,0,-0.324,-0.3277,-0.3268,-0.3255,-0.3254,-0.3203,-0.3201,-0.3199,-0.3176,-0.3177,-0.3179,-0.318,-0.3076,-0.307,-0.3064,-0.2999,0,0,-0.3047,-0.3045,0,0,0,0,0,0,0,0,-0.3243,-0.3239,-0.3257,-0.3256,-0.3255,-0.3206,-0.3165,-0.3133,-0.3175,-0.3196,-0.3179,-0.3181,-0.3118,-0.3109,-0.3082,-0.2994,-0.299,-0.3047,-0.3043,-0.3041,-0.3039,0,0,0,0,0,0,0,-0.3245,-0.3241,-0.3234,-0.3257,-0.3256,-0.322,-0.3216,-0.3158,-0.3142,-0.3194,-0.3195,-0.32,-0.3116,-0.3087,-0.3079,-0.2988,-0.3047,-0.3042,-0.3038,-0.3036,-0.283,-0.2828,0,0,0,0,0,0,-0.3274,-0.3244,-0.3236,-0.3233,-0.3262,-0.3219,-0.3215,-0.3213,-0.3144,-0.3137,-0.3199,-0.32,-0.3096,-0.3086,-0.3075,-0.3005,-0.3041,-0.3036,-0.3032,-0.2832,-0.2829,-0.2827,0,0,0,0,0,0,-0.3274,-0.3273,-0.3239,-0.3244,-0.3238,-0.3219,-0.3217,-0.3211,-0.3199,-0.3149,-0.3141,-0.3196,-0.3097,-0.3083,-0.3024,-0.3,-0.3033,-0.3028,-0.2834,-0.2831,-0.2828,-0.2856,0,0,0,0,0,0,-0.3274,-0.3273,-0.327,-0.3246,-0.3239,-0.3204,-0.3216,-0.3209,-0.3204,-0.3204,-0.3143,-0.3134,-0.3097,-0.3033,-0.3018,-0.2993,-0.3023,-0.2837,-0.2833,-0.2829,-0.2858,-0.2854,-0.2851,0,0,0,0,0,-0.3275,-0.3265,-0.3269,-0.3269,-0.3239,-0.3204,-0.3194,-0.3181,-0.3202,-0.3178,-0.3146,-0.3136,-0.2998,-0.3026,-0.301,-0.2983,-0.2839,-0.2834,-0.283,-0.2859,-0.2855,-0.2852,0,0,0,0,0,0,-0.3248,-0.3262,-0.3266,-0.3256,-0.3234,-0.3203,-0.3185,-0.3188,-0.3142,-0.3141,-0.3111,-0.3097,-0.303,-0.2998,-0.3031,-0.2908,-0.2915,-0.2907,-0.2943,-0.2939,-0.2935,-0.2943,-0.3019,0,0,0,0,0,-0.3248,-0.3248,-0.3245,-0.3228,-0.3228,-0.3211,-0.3197,-0.3183,-0.3151,-0.3135,-0.3096,-0.3046,-0.2991,-0.2965,-0.2899,-0.2838,-0.2813,-0.2806,-0.2803,-0.2801,-0.2792,-0.2772,-0.2768,-0.2812,-0.2812,-0.2812,0,0,-0.3226,-0.3238,-0.3232,-0.3224,-0.3209,-0.3175,-0.3203,-0.3174,-0.3139,-0.3127,-0.3061,-0.3028,-0.297,-0.2896,-0.2864,-0.2874,-0.2764,-0.2795,-0.2794,-0.2786,-0.2767,-0.2763,-0.276,-0.2809,-0.2809,-0.281,0,0,-0.3165,-0.3202,-0.317,-0.3163,-0.3151,-0.3146,-0.3148,-0.3117,-0.3103,-0.3039,-0.3024,-0.2987,-0.2893,-0.2856,-0.2827,-0.2765,-0.2744,-0.274,-0.2736,-0.2717,-0.2715,-0.2712,-0.2642,-0.2633,-0.2745,-0.2745,-0.2745,0,-0.314,-0.3103,-0.3148,-0.3116,-0.311,-0.314,-0.3093,-0.3076,-0.3022,-0.3016,-0.3014,-0.2913,-0.2871,-0.2813,-0.2787,-0.276,-0.2733,-0.2766,-0.2718,-0.2715,-0.2712,-0.2641,-0.2631,-0.2746,-0.2746,-0.2746,-0.2746,0,-0.3032,-0.3023,-0.3009,-0.2991,-0.2991,-0.2956,-0.2967,-0.2954,-0.296,-0.2946,-0.2897,-0.2849,-0.2803,-0.2779,-0.2761,-0.2716,-0.2694,-0.2719,-0.2742,-0.271,-0.2636,-0.2625,-0.2747,-0.2747,-0.2747,-0.2746,0,0,-0.2921,-0.2932,-0.2922,-0.2918,-0.2928,-0.2915,-0.2896,-0.2884,-0.2893,-0.2847,-0.2838,-0.2756,-0.2774,-0.274,-0.2727,-0.2709,-0.2653,-0.2706,-0.2705,-0.2659,-0.2574,-0.2447,-0.2422,-0.2688,-0.2687,-0.2686,-0.2519,0,-0.2814,-0.2749,-0.2784,-0.2733,-0.2713,-0.2777,-0.2771,-0.2779,-0.2797,-0.2796,-0.2787,-0.2758,-0.275,-0.2743,-0.2722,-0.2683,-0.263,-0.2693,-0.2589,-0.2585,-0.2498,-0.2408,-0.2282,-0.2115,-0.2508,-0.2507,-0.2505,0,-0.2662,-0.2668,-0.2595,-0.265,-0.265,-0.263,-0.268,-0.2673,-0.2714,-0.2736,-0.2742,-0.2752,-0.2715,-0.2723,-0.2632,-0.2678,-0.2609,-0.2574,-0.2568,-0.2435,-0.2438,-0.2213,-0.208,-0.2091,-0.2489,-0.249,-0.2491,0,-0.2538,-0.2529,-0.2482,-0.2487,-0.2544,-0.2545,-0.2578,-0.2637,-0.2661,-0.2702,-0.2733,-0.2714,-0.2694,-0.2644,-0.2562,-0.2605,-0.2449,-0.2506,-0.2309,-0.2299,-0.2158,-0.2136,-0.2043,-0.2409,-0.2409,-0.241,-0.241,0,-0.2401,-0.2369,-0.2424,-0.2405,-0.2387,-0.2465,-0.2467,-0.2517,-0.2595,-0.2609,-0.2689,-0.2671,-0.2679,-0.2607,-0.254,-0.2361,-0.2422,-0.2266,-0.2241,-0.2155,-0.2137,-0.2115,-0.2172,-0.2404,-0.2405,-0.2406,-0.2407,0,-0.2246,-0.2272,-0.2241,-0.2304,-0.2317,-0.2303,-0.2394,-0.2411,-0.2519,-0.2543,-0.2559,-0.2616,-0.251,-0.2474,-0.2358,-0.2301,-0.212,-0.2083,-0.1949,-0.1911,-0.1763,-0.1826,-0.1693,-0.1645,-0.1854,-0.185,-0.1846,0,-0.2144,-0.211,-0.2147,-0.2134,-0.215,-0.2169,-0.2184,-0.2321,-0.236,-0.2471,-0.2459,-0.2418,-0.2304,-0.2101,-0.1996,-0.1825,-0.1889,-0.1641,-0.17,-0.169,-0.1745,-0.1824,-0.1802,-0.151,-0.1504,-0.1499,-0.1495,0,-0.1985,-0.1998,-0.1989,-0.1962,-0.196,-0.1978,-0.2025,-0.2065,-0.2217,-0.2243,-0.2206,-0.2125,-0.196,-0.1722,-0.1561,-0.147,-0.1621,-0.1532,-0.1572,-0.1483,-0.1513,-0.1476,-0.167,-0.1451,-0.1456,-0.1459,-0.1461,-0.1463,-0.1859,-0.1816,-0.1802,-0.1766,-0.1768,-0.1766,-0.174,-0.1821,-0.1835,-0.183,-0.1849,-0.1612,-0.1525,-0.126,-0.1199,-0.1119,-0.1238,-0.1103,-0.1178,-0.1257,-0.1215,-0.1274,-0.1013,-0.1014,-0.1016,-0.1017,-0.1019,0,-0.1703,-0.1667,-0.1614,-0.1567,-0.1501,-0.1562,-0.1605,-0.1568,-0.1517,-0.1439,-0.132,-0.1007,-0.0871,-0.0857,-0.0852,-0.0812,-0.0852,-0.082,-0.0936,-0.093,-0.0995,-0.0985,-0.0645,-0.0645,-0.0645,-0.0645,-0.0645,-0.0645,-0.1618,-0.1512,-0.1484,-0.1311,-0.1269,-0.1145,-0.1137,-0.111,-0.1046,-0.0775,-0.0511,-0.0359,-0.0462,-0.0716,-0.078,-0.0742,-0.0805,-0.0733,-0.0826,-0.0926,-0.0961,-0.0995,-0.0998,-0.0667,-0.0667,-0.0701,-0.0702,-0.0702]},{"header":{"parameterUnit":"m.s-1","parameterCategory":2,"la1":30.2991,"la2":30.254,"lo1":-89.0895,"lo2":-89.0444,"dy":0.0017,"dx":0.0017,"nx":28,"ny":28,"refTime":"2024-04-12T21:00:00:Z","depth":"0","parameterNumber":3,"parameterNumberName":"V-component_of_CURRENTS"},"data":[0,0,0,0,0,0,0,0,0,0,0,0,0,0,0,0,0,0,0,0,0,0,0,0,0,0,0,0,0,0,0,0,0,0,0,0,0,0,0,0,0,0,0,0,0,0,0,0,0,0,0,0,0,0,0,0,0,0,-0.0659,-0.0657,0,-0.0501,-0.0499,-0.0497,-0.0403,-0.0402,-0.0402,-0.0402,-0.0223,-0.0219,-0.0214,0,0,0,0,0,0,0,0,0,0,0,0,0,-0.0829,-0.0826,-0.0659,-0.0657,-0.0655,-0.0501,-0.0499,-0.0497,-0.0403,-0.0402,-0.0402,-0.0402,-0.0224,-0.0219,-0.0214,0,0,0,0,0,0,0,0,0,0,0,0,0,-0.0721,-0.0825,-0.066,-0.0591,-0.0583,-0.0502,-0.0499,-0.0496,-0.0403,-0.0402,-0.0402,-0.0401,-0.0226,-0.022,-0.0213,-0.0182,0,0,-0.0193,-0.019,0,0,0,0,0,0,0,0,-0.0727,-0.0714,-0.0603,-0.0595,-0.0586,-0.0472,-0.0493,-0.039,-0.0403,-0.047,-0.0402,-0.0401,-0.0305,-0.0292,-0.0262,-0.0174,-0.0166,-0.0192,-0.0188,-0.0185,-0.0183,0,0,0,0,0,0,0,-0.0735,-0.072,-0.0596,-0.0601,-0.0591,-0.055,-0.0534,-0.0473,-0.0392,-0.0464,-0.0457,-0.0441,-0.03,-0.0269,-0.0258,-0.0164,-0.0192,-0.0186,-0.0182,-0.018,-0.0031,-0.0031,0,0,0,0,0,0,-0.0759,-0.0728,-0.0601,-0.0591,-0.0658,-0.0548,-0.053,-0.0508,-0.0392,-0.0375,-0.0442,-0.0438,-0.0281,-0.0265,-0.0251,-0.0201,-0.0185,-0.0179,-0.0175,-0.0031,-0.0031,-0.0031,0,0,0,0,0,0,-0.0763,-0.0749,-0.0607,-0.0657,-0.0636,-0.0546,-0.0522,-0.0506,-0.0472,-0.0376,-0.0357,-0.0425,-0.028,-0.026,-0.0196,-0.0194,-0.0176,-0.017,-0.0031,-0.0031,-0.0031,-0.0107,0,0,0,0,0,0,-0.0768,-0.0751,-0.0747,-0.0658,-0.0634,-0.0563,-0.0522,-0.0503,-0.0463,-0.0456,-0.0355,-0.0338,-0.0278,-0.0207,-0.019,-0.0185,-0.0165,-0.0031,-0.0031,-0.0031,-0.0104,-0.0109,-0.0114,0,0,0,0,0,-0.0775,-0.0767,-0.0747,-0.0732,-0.063,-0.0563,-0.0547,-0.0481,-0.0464,-0.0449,-0.0383,-0.0341,-0.0195,-0.0201,-0.0181,-0.0174,-0.0031,-0.0031,-0.0031,-0.0102,-0.0108,-0.0114,0,0,0,0,0,0,-0.0837,-0.0755,-0.0731,-0.0699,-0.0641,-0.0548,-0.0529,-0.0489,-0.0425,-0.0418,-0.0335,-0.0313,-0.026,-0.0208,-0.0217,-0.0133,-0.0108,-0.0105,-0.0169,-0.0174,-0.0179,-0.0198,-0.0159,0,0,0,0,0,-0.0851,-0.0825,-0.0744,-0.0721,-0.0696,-0.0617,-0.0584,-0.0539,-0.047,-0.0441,-0.0376,-0.0307,-0.0244,-0.0204,-0.0145,-0.0093,-0.0037,-0.0078,-0.0083,-0.0087,-0.009,-0.0016,-0.0015,-0.0032,-0.0032,-0.0032,0,0,-0.087,-0.0822,-0.0807,-0.0733,-0.0684,-0.0648,-0.0596,-0.0548,-0.0518,-0.0433,-0.0382,-0.0323,-0.0237,-0.0182,-0.0153,-0.0136,-0.005,-0.0088,-0.0092,-0.0092,-0.0016,-0.0014,-0.0013,-0.0032,-0.0032,-0.0032,0,0,-0.0888,-0.0853,-0.0833,-0.0792,-0.0723,-0.0675,-0.0667,-0.0583,-0.0546,-0.0489,-0.0426,-0.0366,-0.0272,-0.0207,-0.0163,-0.0158,-0.0085,-0.0144,-0.0171,-0.01,-0.0098,-0.0096,-0.0013,-0.0003,-0.0139,-0.0139,-0.0139,0,-0.092,-0.0876,-0.082,-0.0792,-0.0767,-0.0695,-0.0674,-0.0625,-0.0533,-0.0507,-0.0485,-0.035,-0.0281,-0.0205,-0.0203,-0.0168,-0.0114,-0.0157,-0.0107,-0.0104,-0.01,-0.0015,-0.0003,-0.0142,-0.0142,-0.0142,-0.0141,0,-0.091,-0.0886,-0.0875,-0.082,-0.0789,-0.0759,-0.0692,-0.0661,-0.0619,-0.0563,-0.0493,-0.0398,-0.0318,-0.0288,-0.0239,-0.018,-0.0145,-0.0129,-0.0096,-0.0103,-0.0013,0.0001,-0.0148,-0.0146,-0.0145,-0.0144,0,0,-0.0953,-0.0884,-0.088,-0.0872,-0.0803,-0.078,-0.0745,-0.0686,-0.0669,-0.0585,-0.0545,-0.0439,-0.0394,-0.0341,-0.0272,-0.0206,-0.0128,-0.0163,-0.0157,-0.0087,0.004,0.0073,0.0093,-0.0106,-0.0105,-0.0103,0.0096,0,-0.0964,-0.0936,-0.0892,-0.0881,-0.0866,-0.0813,-0.0793,-0.0738,-0.0683,-0.0631,-0.0528,-0.0469,-0.041,-0.0377,-0.03,-0.0171,-0.0096,-0.0182,0.0042,0.0049,0.0074,0.0108,0.0164,0.0345,0.011,0.0113,0.0114,0,-0.0956,-0.0947,-0.0934,-0.0921,-0.0911,-0.0899,-0.0868,-0.0838,-0.0751,-0.0709,-0.0627,-0.0548,-0.0428,-0.0393,-0.0168,-0.0227,-0.0104,-0.0005,0.0005,0.007,0.0108,0.0314,0.0381,0.0508,0.0137,0.0135,0.0134,0,-0.1001,-0.0975,-0.0975,-0.0966,-0.0936,-0.0935,-0.0922,-0.0862,-0.0852,-0.0759,-0.0728,-0.0583,-0.0491,-0.0337,-0.0125,-0.0146,0.0124,0.0124,0.0275,0.028,0.039,0.04,0.0601,0.0272,0.0272,0.0271,0.0271,0,-0.1017,-0.1021,-0.1002,-0.1006,-0.1033,-0.0993,-0.1007,-0.0972,-0.0927,-0.0901,-0.0776,-0.0686,-0.0475,-0.0293,-0.0126,0.0134,0.0134,0.0285,0.0335,0.0365,0.0371,0.0535,0.0576,0.0279,0.0277,0.0276,0.0274,0,-0.1045,-0.1025,-0.104,-0.1039,-0.1048,-0.1068,-0.1083,-0.1096,-0.1033,-0.0991,-0.0967,-0.0748,-0.0486,-0.0271,0.0023,0.0152,0.0477,0.0461,0.0487,0.0535,0.0755,0.0788,0.1029,0.1145,0.0654,0.0656,0.0657,0,-0.1048,-0.1056,-0.1081,-0.1107,-0.1108,-0.1139,-0.117,-0.1154,-0.1166,-0.1002,-0.0981,-0.0716,-0.0466,-0.0021,0.0235,0.0535,0.0622,0.0723,0.068,0.0791,0.0866,0.0867,0.0947,0.0815,0.0818,0.082,0.0822,0,-0.1074,-0.1079,-0.1096,-0.1153,-0.1196,-0.1257,-0.1293,-0.132,-0.1271,-0.1141,-0.0886,-0.0651,-0.0223,0.0195,0.0517,0.0676,0.0823,0.0777,0.0903,0.1018,0.1026,0.1154,0.0661,0.0843,0.0841,0.084,0.0838,0.0838,-0.1093,-0.1114,-0.1138,-0.1188,-0.1258,-0.1344,-0.1385,-0.1335,-0.1261,-0.0994,-0.0763,-0.024,0.0168,0.068,0.0832,0.1093,0.104,0.1175,0.1214,0.121,0.1294,0.0838,0.1052,0.1051,0.105,0.105,0.1049,0,-0.1107,-0.1124,-0.1174,-0.1248,-0.1332,-0.136,-0.1446,-0.1412,-0.1232,-0.0792,-0.0394,0.0385,0.078,0.1089,0.1389,0.1532,0.156,0.1583,0.1616,0.1686,0.1315,0.1291,0.1552,0.1552,0.1552,0.1552,0.1552,0.1551,-0.1117,-0.1141,-0.116,-0.128,-0.1342,-0.1438,-0.1477,-0.1316,-0.1032,-0.0282,0.0371,0.0879,0.1266,0.1599,0.1865,0.1899,0.2055,0.2004,0.2098,0.1837,0.1801,0.1767,0.1755,0.211,0.211,0.2476,0.2479,0.2482]}],[{"header":{"parameterUnit":"m.s-1","parameterCategory":2,"la1":30.2991,"la2":30.254,"lo1":-89.0895,"lo2":-89.0444,"dy":0.0017,"dx":0.0017,"nx":28,"ny":28,"refTime":"2024-04-12T21:00:00:Z","depth":"2","parameterNumber":2,"parameterNumberName":"U-component_of_CURRENTS"},"data":[0,0,0,0,0,0,0,0,0,0,0,0,0,0,0,0,0,0,0,0,0,0,0,0,0,0,0,0,0,0,0,0,0,0,0,0,0,0,0,0,0,0,0,0,0,0,0,0,0,0,0,0,0,0,0,0,0,0,-0.247,-0.247,0,-0.2455,-0.2455,-0.2455,-0.2448,-0.2449,-0.2449,-0.2449,-0.2422,-0.2421,-0.242,0,0,0,0,0,0,0,0,0,0,0,0,0,-0.2483,-0.2483,-0.247,-0.247,-0.247,-0.2455,-0.2455,-0.2455,-0.2448,-0.2449,-0.2449,-0.2449,-0.2422,-0.2421,-0.242,0,0,0,0,0,0,0,0,0,0,0,0,0,-0.2473,-0.2483,-0.247,-0.2465,-0.2464,-0.2455,-0.2455,-0.2455,-0.2448,-0.2449,-0.2449,-0.2449,-0.2422,-0.2421,-0.242,-0.2412,0,0,-0.2417,-0.2416,0,0,0,0,0,0,0,0,-0.2474,-0.2473,-0.2466,-0.2465,-0.2465,-0.2454,-0.245,-0.244,-0.2448,-0.2454,-0.2449,-0.2449,-0.2432,-0.243,-0.2427,-0.2411,-0.241,-0.2417,-0.2416,-0.2416,-0.2415,0,0,0,0,0,0,0,-0.2475,-0.2474,-0.2464,-0.2466,-0.2465,-0.246,-0.2459,-0.2448,-0.2442,-0.2454,-0.2453,-0.2452,-0.2431,-0.2428,-0.2426,-0.2409,-0.2417,-0.2416,-0.2415,-0.2415,-0.2428,-0.2429,0,0,0,0,0,0,-0.2477,-0.2474,-0.2465,-0.2464,-0.247,-0.246,-0.2458,-0.2457,-0.2443,-0.2441,-0.2452,-0.2452,-0.243,-0.2427,-0.2425,-0.2444,-0.2416,-0.2415,-0.2414,-0.2427,-0.2428,-0.2429,0,0,0,0,0,0,-0.2478,-0.2477,-0.2465,-0.2469,-0.2467,-0.246,-0.2458,-0.2457,-0.2458,-0.2442,-0.2439,-0.2455,-0.243,-0.2427,-0.2428,-0.2442,-0.2414,-0.2413,-0.2426,-0.2427,-0.2429,-0.2463,0,0,0,0,0,0,-0.2478,-0.2477,-0.2471,-0.2469,-0.2467,-0.2467,-0.2458,-0.2457,-0.2457,-0.2457,-0.2444,-0.2441,-0.2429,-0.243,-0.2427,-0.244,-0.2412,-0.2424,-0.2426,-0.2428,-0.246,-0.2465,-0.2469,0,0,0,0,0,-0.2479,-0.2466,-0.2471,-0.2469,-0.2461,-0.2467,-0.2466,-0.246,-0.2457,-0.2461,-0.2457,-0.2442,-0.244,-0.243,-0.2426,-0.2439,-0.2423,-0.2426,-0.2428,-0.2458,-0.2464,-0.2469,0,0,0,0,0,0,-0.246,-0.2464,-0.2469,-0.2456,-0.2467,-0.2466,-0.2459,-0.2464,-0.2463,-0.2463,-0.2449,-0.2446,-0.2453,-0.2444,-0.2432,-0.2451,-0.2432,-0.2433,-0.2456,-0.2461,-0.2466,-0.2448,-0.2411,0,0,0,0,0,-0.2456,-0.2456,-0.2463,-0.2457,-0.2458,-0.2463,-0.2462,-0.2469,-0.2469,-0.2468,-0.2464,-0.2461,-0.2459,-0.2458,-0.2454,-0.246,-0.2424,-0.2469,-0.2473,-0.2477,-0.2462,-0.2436,-0.2436,-0.2437,-0.2437,-0.2437,0,0,-0.245,-0.2452,-0.2452,-0.2455,-0.2458,-0.2469,-0.2462,-0.2469,-0.2483,-0.2465,-0.2477,-0.2473,-0.2464,-0.2473,-0.2476,-0.2468,-0.2458,-0.248,-0.2483,-0.2465,-0.2438,-0.2438,-0.2437,-0.2438,-0.2438,-0.2438,0,0,-0.2441,-0.2438,-0.2437,-0.245,-0.2462,-0.247,-0.2476,-0.2487,-0.2492,-0.2508,-0.25,-0.2501,-0.2505,-0.2498,-0.2495,-0.2521,-0.2481,-0.2532,-0.2539,-0.2515,-0.2514,-0.2513,-0.2459,-0.2452,-0.2536,-0.2536,-0.2536,0,-0.2429,-0.2431,-0.2439,-0.2448,-0.2455,-0.2475,-0.2484,-0.2497,-0.2513,-0.2514,-0.2518,-0.2518,-0.2512,-0.2512,-0.2526,-0.2528,-0.2499,-0.2518,-0.2519,-0.2517,-0.2515,-0.246,-0.2452,-0.2538,-0.2538,-0.2537,-0.2537,0,-0.2425,-0.2432,-0.2432,-0.2455,-0.2469,-0.2478,-0.2505,-0.2522,-0.2534,-0.2544,-0.2551,-0.2546,-0.254,-0.2551,-0.2545,-0.2538,-0.2515,-0.2525,-0.25,-0.2516,-0.2458,-0.2449,-0.254,-0.254,-0.2539,-0.2539,0,0,-0.2375,-0.2419,-0.2418,-0.2431,-0.2471,-0.2479,-0.2513,-0.2532,-0.2541,-0.2563,-0.2561,-0.257,-0.2564,-0.2559,-0.2556,-0.254,-0.2504,-0.253,-0.2528,-0.2466,-0.2426,-0.2318,-0.2298,-0.2517,-0.2516,-0.2515,-0.2387,0,-0.2363,-0.2378,-0.241,-0.2434,-0.2438,-0.248,-0.2508,-0.2539,-0.2557,-0.2564,-0.2564,-0.2565,-0.257,-0.2567,-0.2553,-0.252,-0.2484,-0.2535,-0.2427,-0.2423,-0.2317,-0.2286,-0.2122,-0.1986,-0.2378,-0.2377,-0.2376,0,-0.2329,-0.235,-0.2362,-0.2414,-0.242,-0.2443,-0.2477,-0.2508,-0.2537,-0.2553,-0.2558,-0.256,-0.2543,-0.2546,-0.248,-0.2515,-0.2464,-0.2434,-0.2429,-0.2305,-0.2299,-0.2036,-0.1955,-0.2361,-0.2362,-0.2363,-0.2364,0,-0.2257,-0.2306,-0.2311,-0.2329,-0.2396,-0.2408,-0.2444,-0.2488,-0.2504,-0.2534,-0.2537,-0.2536,-0.2511,-0.2477,-0.2418,-0.2451,-0.2324,-0.2362,-0.2207,-0.2199,-0.2022,-0.1999,-0.229,-0.229,-0.229,-0.229,-0.2291,0,-0.2205,-0.2208,-0.2276,-0.2278,-0.2287,-0.2359,-0.2369,-0.2412,-0.2457,-0.2449,-0.2512,-0.2481,-0.2493,-0.2431,-0.2394,-0.2251,-0.2298,-0.2177,-0.2152,-0.2029,-0.2009,-0.2314,-0.2318,-0.2286,-0.2287,-0.2288,-0.2288,0,-0.2102,-0.2152,-0.2158,-0.2228,-0.2244,-0.2245,-0.2312,-0.2321,-0.239,-0.2375,-0.2383,-0.2415,-0.2331,-0.231,-0.2227,-0.2185,-0.2091,-0.2025,-0.1863,-0.182,-0.1989,-0.1997,-0.1844,-0.1839,-0.1835,-0.1832,-0.1829,0,-0.2041,-0.2036,-0.209,-0.2088,-0.2111,-0.2137,-0.2152,-0.2254,-0.2262,-0.2305,-0.2274,-0.2231,-0.2148,-0.2002,-0.1911,-0.1794,-0.1913,-0.1599,-0.1633,-0.1949,-0.194,-0.1955,-0.1969,-0.141,-0.1403,-0.1398,-0.1394,0,-0.1922,-0.1943,-0.195,-0.1948,-0.1958,-0.198,-0.201,-0.2015,-0.2109,-0.2106,-0.2062,-0.201,-0.1868,-0.1672,-0.1545,-0.147,-0.1618,-0.149,-0.1837,-0.1558,-0.1531,-0.1526,-0.1555,-0.1349,-0.1354,-0.1357,-0.136,-0.1361,-0.1814,-0.1788,-0.1796,-0.1783,-0.1799,-0.1796,-0.1752,-0.18,-0.1787,-0.1758,-0.1823,-0.1692,-0.1622,-0.1327,-0.122,-0.1138,-0.1257,-0.1228,-0.1247,-0.127,-0.1253,-0.1221,-0.0976,-0.0978,-0.098,-0.0982,-0.0983,0,-0.167,-0.1657,-0.1634,-0.1613,-0.157,-0.1634,-0.1626,-0.1551,-0.147,-0.1516,-0.1477,-0.1248,-0.1104,-0.1041,-0.0827,-0.0783,-0.0815,-0.0764,-0.0821,-0.0862,-0.09,-0.087,-0.0488,-0.0487,-0.0486,-0.0485,0,0,-0.1593,-0.1521,-0.1513,-0.1389,-0.137,-0.1262,-0.1222,-0.113,-0.1113,-0.102,-0.0977,-0.1101,-0.103,-0.0799,-0.0711,-0.0574,-0.0734,-0.0536,-0.0923,-0.1033,-0.1072,-0.1137,-0.1132,0,0,0,0,0]},{"header":{"parameterUnit":"m.s-1","parameterCategory":2,"la1":30.2991,"la2":30.254,"lo1":-89.0895,"lo2":-89.0444,"dy":0.0017,"dx":0.0017,"nx":28,"ny":28,"refTime":"2024-04-12T21:00:00:Z","depth":"2","parameterNumber":3,"parameterNumberName":"V-component_of_CURRENTS"},"data":[0,0,0,0,0,0,0,0,0,0,0,0,0,0,0,0,0,0,0,0,0,0,0,0,0,0,0,0,0,0,0,0,0,0,0,0,0,0,0,0,0,0,0,0,0,0,0,0,0,0,0,0,0,0,0,0,0,0,-0.0399,-0.0397,0,-0.0276,-0.0275,-0.0273,-0.0208,-0.0208,-0.0208,-0.0207,-0.0054,-0.005,-0.0046,0,0,0,0,0,0,0,0,0,0,0,0,0,-0.0508,-0.0506,-0.0399,-0.0397,-0.0396,-0.0276,-0.0275,-0.0273,-0.0208,-0.0208,-0.0207,-0.0207,-0.0055,-0.005,-0.0046,0,0,0,0,0,0,0,0,0,0,0,0,0,-0.0431,-0.0506,-0.0399,-0.0349,-0.0343,-0.0277,-0.0275,-0.0273,-0.0208,-0.0208,-0.0207,-0.0207,-0.0057,-0.0051,-0.0045,-0.0013,0,0,-0.0027,-0.0024,0,0,0,0,0,0,0,0,-0.0435,-0.0427,-0.0358,-0.0352,-0.0345,-0.0257,-0.0257,-0.0184,-0.0208,-0.0259,-0.0207,-0.0207,-0.0119,-0.0108,-0.0086,-0.0005,0.0001,-0.0026,-0.0023,-0.002,-0.0018,0,0,0,0,0,0,0,-0.0441,-0.0431,-0.035,-0.0356,-0.0349,-0.0309,-0.0298,-0.0242,-0.0191,-0.0255,-0.025,-0.0236,-0.0115,-0.0092,-0.0082,0.0003,-0.0026,-0.0021,-0.0017,-0.0015,0.0119,0.0119,0,0,0,0,0,0,-0.0459,-0.0437,-0.0354,-0.0347,-0.0391,-0.0307,-0.0295,-0.0286,-0.0192,-0.0178,-0.0236,-0.0233,-0.0102,-0.0089,-0.0076,-0.0031,-0.002,-0.0015,-0.0011,0.0119,0.0119,0.0119,0,0,0,0,0,0,-0.0462,-0.0453,-0.0359,-0.0388,-0.0374,-0.0306,-0.0295,-0.0283,-0.0258,-0.0179,-0.0164,-0.0223,-0.0101,-0.0084,-0.0026,-0.0024,-0.0012,-0.0006,0.0119,0.0119,0.0119,0.0059,0,0,0,0,0,0,-0.0466,-0.0455,-0.0457,-0.039,-0.0373,-0.0324,-0.0295,-0.0281,-0.025,-0.0245,-0.0162,-0.0148,-0.01,-0.0035,-0.002,-0.0016,-0.0002,0.0119,0.0119,0.0119,0.0061,0.0057,0.0053,0,0,0,0,0,-0.047,-0.047,-0.0458,-0.0448,-0.0377,-0.0324,-0.0312,-0.0263,-0.025,-0.0239,-0.0184,-0.015,-0.0025,-0.003,-0.0013,-0.0007,0.0119,0.0119,0.0119,0.0062,0.0057,0.0053,0,0,0,0,0,0,-0.0518,-0.0461,-0.0447,-0.0431,-0.0386,-0.0313,-0.0298,-0.0267,-0.0216,-0.0211,-0.0142,-0.0123,-0.0077,-0.0033,-0.004,0.0031,0.005,0.0053,0.0,-0.0003,-0.0007,-0.0024,0.0003,0,0,0,0,0,-0.0532,-0.0519,-0.0458,-0.0448,-0.0427,-0.0366,-0.034,-0.0307,-0.0251,-0.0228,-0.0173,-0.0115,-0.0063,-0.0027,0.0022,0.007,0.0114,0.0082,0.0079,0.0075,0.0073,0.0142,0.0144,0.0119,0.0119,0.0119,0,0,-0.0551,-0.0516,-0.0511,-0.0458,-0.0419,-0.0392,-0.035,-0.0313,-0.0292,-0.0219,-0.0178,-0.0127,-0.0055,-0.0008,0.0017,0.0032,0.0104,0.0075,0.0072,0.0072,0.0142,0.0145,0.0147,0.0119,0.0119,0.0119,0,0,-0.0572,-0.0549,-0.0542,-0.0508,-0.0454,-0.0415,-0.0408,-0.0341,-0.0312,-0.0265,-0.0213,-0.0158,-0.008,-0.0023,0.0014,0.0022,0.0076,0.003,0.001,0.0076,0.0079,0.0082,0.0134,0.0142,0.0036,0.0035,0.0035,0,-0.06,-0.0581,-0.0532,-0.0514,-0.0494,-0.043,-0.042,-0.0377,-0.0303,-0.0276,-0.0262,-0.0143,-0.0085,-0.0014,-0.0016,0.0015,0.0053,0.002,0.0071,0.0075,0.0079,0.0132,0.0142,0.0033,0.0033,0.0033,0.0033,0,-0.0611,-0.0598,-0.059,-0.0551,-0.0523,-0.0503,-0.0443,-0.0413,-0.0375,-0.0327,-0.026,-0.0179,-0.0106,-0.0082,-0.0044,0.0012,0.0028,0.0051,0.008,0.0078,0.0134,0.0145,0.0028,0.0029,0.003,0.0031,0,0,-0.0667,-0.0611,-0.0611,-0.0604,-0.0544,-0.0523,-0.049,-0.0435,-0.0408,-0.034,-0.0296,-0.0208,-0.0163,-0.0118,-0.0059,-0.0001,0.0058,0.0028,0.0033,0.0075,0.0194,0.0212,0.0226,0.0087,0.0089,0.009,0.0219,0,-0.0693,-0.0682,-0.0641,-0.0636,-0.0625,-0.0567,-0.0541,-0.0486,-0.0426,-0.0367,-0.0276,-0.0212,-0.0175,-0.0139,-0.0076,0.0027,0.0086,0.0021,0.0195,0.02,0.0212,0.024,0.0216,0.033,0.0231,0.0233,0.0234,0,-0.0715,-0.0707,-0.0708,-0.0679,-0.0669,-0.0658,-0.0608,-0.0575,-0.0475,-0.0426,-0.0344,-0.0265,-0.0163,-0.0137,0.0036,-0.001,0.008,0.0157,0.0165,0.0211,0.0239,0.0319,0.0355,0.0253,0.0252,0.025,0.0249,0,-0.0775,-0.0752,-0.0761,-0.0752,-0.0707,-0.0701,-0.0679,-0.0598,-0.0565,-0.046,-0.0409,-0.0287,-0.0205,-0.0087,0.0072,0.0056,0.026,0.0267,0.037,0.0372,0.0402,0.0404,0.0386,0.0386,0.0385,0.0385,0.0385,0,-0.0813,-0.0819,-0.0795,-0.0801,-0.0818,-0.0765,-0.0757,-0.0709,-0.0627,-0.0564,-0.0449,-0.0354,-0.0189,-0.0045,0.0073,0.026,0.0268,0.0374,0.0413,0.0379,0.0378,0.035,0.0344,0.039,0.0389,0.0388,0.0387,0,-0.0861,-0.0844,-0.0857,-0.084,-0.0844,-0.0857,-0.0826,-0.0809,-0.0718,-0.0627,-0.0591,-0.0398,-0.0198,-0.0032,0.0188,0.0277,0.0441,0.0503,0.0443,0.0472,0.0504,0.0493,0.0629,0.0631,0.0633,0.0634,0.0635,0,-0.0879,-0.089,-0.0904,-0.0925,-0.0921,-0.0932,-0.0937,-0.0873,-0.0825,-0.063,-0.0575,-0.0365,-0.0174,0.0137,0.032,0.053,0.0518,0.0611,0.0581,0.0508,0.0532,0.0519,0.0507,0.0599,0.06,0.06,0.0601,0,-0.0915,-0.092,-0.0932,-0.0983,-0.1007,-0.1025,-0.1006,-0.0975,-0.0851,-0.0733,-0.0512,-0.0345,-0.0029,0.0222,0.0463,0.057,0.0568,0.063,0.0603,0.0529,0.0487,0.0508,0.0496,0.0606,0.0605,0.0605,0.0605,0.0604,-0.0939,-0.0961,-0.0984,-0.1027,-0.1067,-0.1078,-0.1057,-0.0989,-0.0888,-0.0634,-0.049,-0.0211,0.0001,0.0369,0.0541,0.0673,0.067,0.0688,0.0684,0.0679,0.0641,0.0603,0.0736,0.0736,0.0736,0.0736,0.0737,0,-0.0951,-0.0976,-0.1025,-0.1071,-0.1118,-0.1125,-0.107,-0.0989,-0.0834,-0.0577,-0.0347,-0.0107,0.0164,0.0375,0.0612,0.0748,0.0719,0.0746,0.0687,0.0681,0.0677,0.0635,0.0731,0.0731,0.0732,0.0732,0,0,-0.0957,-0.0991,-0.1016,-0.1093,-0.113,-0.113,-0.1079,-0.0924,-0.0722,-0.0434,-0.023,-0.0009,0.022,0.0365,0.0533,0.0665,0.064,0.0662,0.0653,0.0563,0.0557,0.063,0.0559,0,0,0,0,0]}],[{"header":{"parameterUnit":"m.s-1","parameterCategory":2,"la1":30.2991,"la2":30.254,"lo1":-89.0895,"lo2":-89.0444,"dy":0.0017,"dx":0.0017,"nx":28,"ny":28,"refTime":"2024-04-12T21:00:00:Z","depth":"4","parameterNumber":2,"parameterNumberName":"U-component_of_CURRENTS"},"data":[0,0,0,0,0,0,0,0,0,0,0,0,0,0,0,0,0,0,0,0,0,0,0,0,0,0,0,0,0,0,0,0,0,0,0,0,0,0,0,0,0,0,0,0,0,0,0,0,0,0,0,0,0,0,0,0,0,0,-0.16,-0.1601,0,-0.1679,-0.168,-0.1681,-0.1718,-0.1718,-0.1718,-0.1718,-0.1774,-0.1775,-0.1777,0,0,0,0,0,0,0,0,0,0,0,0,0,-0.15,-0.1502,-0.16,-0.1601,-0.1602,-0.1679,-0.168,-0.1681,-0.1718,-0.1718,-0.1718,-0.1718,-0.1773,-0.1775,-0.1777,0,0,0,0,0,0,0,0,0,0,0,0,0,-0.1557,-0.1502,-0.16,-0.163,-0.1634,-0.1679,-0.168,-0.1681,-0.1718,-0.1718,-0.1718,-0.1718,-0.1773,-0.1775,-0.1777,-0.1791,0,0,-0.1784,-0.1785,0,0,0,0,0,0,0,0,-0.1554,-0.1561,-0.1625,-0.1628,-0.1632,-0.1689,-0.1666,-0.1717,-0.1718,-0.1685,-0.1718,-0.1718,-0.1744,-0.1748,-0.1763,-0.1794,-0.1796,-0.1784,-0.1785,-0.1786,-0.1787,0,0,0,0,0,0,0,-0.155,-0.1558,-0.1631,-0.1626,-0.163,-0.1646,-0.1654,-0.1676,-0.1713,-0.1688,-0.1691,-0.1701,-0.1745,-0.176,-0.1764,-0.1797,-0.1784,-0.1786,-0.1787,-0.1788,-0.1911,-0.1913,0,0,0,0,0,0,-0.1541,-0.1554,-0.1628,-0.1633,-0.1593,-0.1648,-0.1657,-0.167,-0.1713,-0.172,-0.1701,-0.1702,-0.1757,-0.1762,-0.1766,-0.1846,-0.1786,-0.1789,-0.179,-0.1909,-0.1912,-0.1914,0,0,0,0,0,0,-0.1538,-0.1547,-0.1625,-0.1595,-0.1607,-0.165,-0.1665,-0.1672,-0.1716,-0.1723,-0.1729,-0.1741,-0.1757,-0.1763,-0.1811,-0.1846,-0.179,-0.1792,-0.1907,-0.191,-0.1913,-0.1966,0,0,0,0,0,0,-0.1535,-0.1545,-0.1569,-0.1595,-0.1608,-0.167,-0.1665,-0.1674,-0.1721,-0.1724,-0.1759,-0.1762,-0.1757,-0.1808,-0.1813,-0.1848,-0.1793,-0.1905,-0.1908,-0.1912,-0.1962,-0.197,-0.1978,0,0,0,0,0,-0.1531,-0.1557,-0.1569,-0.1579,-0.1633,-0.1671,-0.168,-0.171,-0.1723,-0.1749,-0.1774,-0.1763,-0.1834,-0.1811,-0.1817,-0.1853,-0.1903,-0.1907,-0.1911,-0.1958,-0.1969,-0.1978,0,0,0,0,0,0,-0.1526,-0.1564,-0.1578,-0.1616,-0.165,-0.1678,-0.1711,-0.173,-0.1772,-0.1785,-0.1788,-0.1793,-0.1846,-0.1848,-0.1822,-0.1901,-0.1867,-0.1873,-0.1901,-0.1911,-0.1919,-0.1895,-0.1795,0,0,0,0,0,-0.1535,-0.1569,-0.1601,-0.1636,-0.1655,-0.1691,-0.1717,-0.1739,-0.1771,-0.1791,-0.1815,-0.1842,-0.1865,-0.1887,-0.1906,-0.1953,-0.1914,-0.1981,-0.1989,-0.1996,-0.1982,-0.1956,-0.1959,-0.1928,-0.1928,-0.1928,0,0,-0.1544,-0.1571,-0.1591,-0.1639,-0.167,-0.1708,-0.1708,-0.1759,-0.1795,-0.179,-0.1857,-0.1872,-0.1884,-0.1932,-0.1956,-0.1941,-0.1986,-0.2001,-0.2007,-0.1989,-0.196,-0.1963,-0.1965,-0.1931,-0.193,-0.193,0,0,-0.157,-0.1603,-0.1638,-0.167,-0.1723,-0.1744,-0.1765,-0.1813,-0.1842,-0.1901,-0.1904,-0.1935,-0.199,-0.1994,-0.2003,-0.2069,-0.2026,-0.2092,-0.2116,-0.2092,-0.2093,-0.2094,-0.2047,-0.2043,-0.2099,-0.2099,-0.2099,0,-0.1577,-0.1625,-0.1655,-0.1696,-0.1728,-0.1764,-0.1805,-0.1841,-0.19,-0.1919,-0.1932,-0.1993,-0.2011,-0.2041,-0.2069,-0.2084,-0.2056,-0.2077,-0.2099,-0.2099,-0.2098,-0.205,-0.2044,-0.2102,-0.2102,-0.2102,-0.2101,0,-0.1623,-0.167,-0.1696,-0.1757,-0.1795,-0.184,-0.1883,-0.1928,-0.1967,-0.199,-0.2041,-0.206,-0.2085,-0.211,-0.2114,-0.2133,-0.2109,-0.2106,-0.2066,-0.2104,-0.2051,-0.2045,-0.2107,-0.2106,-0.2105,-0.2104,0,0,-0.1609,-0.1707,-0.172,-0.1754,-0.1831,-0.186,-0.1925,-0.1975,-0.2003,-0.2061,-0.2085,-0.214,-0.2139,-0.2149,-0.2157,-0.2149,-0.2133,-0.2137,-0.2134,-0.2073,-0.2062,-0.1921,-0.19,-0.2137,-0.2136,-0.2136,-0.2025,0,-0.1635,-0.1714,-0.1762,-0.1836,-0.1872,-0.1924,-0.1973,-0.2024,-0.2061,-0.2093,-0.2111,-0.2142,-0.2158,-0.2171,-0.2167,-0.2142,-0.2119,-0.2161,-0.2048,-0.2044,-0.19,-0.1889,-0.2134,-0.202,-0.2018,-0.2017,-0.2016,0,-0.1656,-0.1707,-0.1782,-0.1861,-0.1883,-0.1934,-0.1998,-0.2047,-0.2091,-0.2119,-0.2143,-0.2151,-0.216,-0.2163,-0.2118,-0.2147,-0.2107,-0.2079,-0.2074,-0.1913,-0.1889,-0.1976,-0.2004,-0.2005,-0.2006,-0.2006,-0.2007,0,-0.1608,-0.1714,-0.1772,-0.1803,-0.19,-0.1942,-0.1994,-0.2053,-0.2078,-0.2125,-0.213,-0.2148,-0.2139,-0.2112,-0.2067,-0.2096,-0.1986,-0.2014,-0.184,-0.1829,-0.1966,-0.1966,-0.1957,-0.1957,-0.1957,-0.1958,-0.1958,0,-0.1591,-0.1638,-0.1759,-0.1785,-0.1843,-0.1924,-0.1972,-0.2023,-0.2073,-0.2066,-0.2133,-0.2099,-0.2126,-0.2071,-0.2044,-0.1898,-0.1961,-0.1816,-0.1783,-0.1994,-0.1999,-0.196,-0.1962,-0.1953,-0.1954,-0.1955,-0.1956,0,-0.1512,-0.16,-0.1663,-0.1781,-0.1818,-0.1855,-0.1949,-0.1967,-0.2036,-0.2022,-0.2033,-0.2052,-0.1969,-0.1957,-0.1886,-0.1831,-0.1737,-0.167,-0.1866,-0.1851,-0.1606,-0.1613,-0.1463,-0.1457,-0.1452,-0.1448,-0.1444,0,-0.1471,-0.1501,-0.1633,-0.1665,-0.1721,-0.1793,-0.1828,-0.193,-0.1933,-0.1954,-0.1918,-0.1874,-0.1858,-0.1633,-0.1659,-0.1562,-0.1551,-0.1507,-0.1583,-0.1568,-0.1552,-0.1567,-0.158,-0.1436,-0.1435,-0.1433,-0.1432,0,-0.1376,-0.1441,-0.149,-0.1559,-0.1616,-0.1662,-0.1719,-0.1707,-0.178,-0.1856,-0.1737,-0.1673,-0.156,-0.1504,-0.1427,-0.1375,-0.1548,-0.1453,-0.1465,-0.1537,-0.1533,-0.1526,-0.1545,-0.1414,-0.1417,-0.1418,-0.1419,0,-0.1293,-0.1308,-0.1383,-0.1427,-0.1494,-0.15,-0.1554,-0.1541,-0.1559,-0.1597,-0.1537,-0.1496,-0.1515,-0.1399,-0.1331,-0.1262,-0.1259,-0.1251,-0.1273,-0.1294,-0.1292,-0.1265,-0.1006,0,0,0,0,0,-0.1199,-0.1206,-0.1241,-0.1283,-0.1344,-0.1376,-0.1459,-0.1513,-0.1577,-0.1446,-0.149,-0.1377,-0.126,-0.1253,-0.1142,-0.126,-0.1274,-0.1129,-0.1282,-0.1315,-0.1336,-0.1351,0,0,0,0,0,0,-0.1128,-0.1167,-0.1192,-0.1149,-0.1143,-0.1187,-0.1233,-0.1286,-0.1229,-0.1296,-0.1234,-0.1288,-0.1194,-0.1272,-0.1102,-0.11,-0.117,-0.1125,-0.1121,-0.1303,-0.1322,-0.1339,-0.1362,0,0,0,0,0]},{"header":{"parameterUnit":"m.s-1","parameterCategory":2,"la1":30.2991,"la2":30.254,"lo1":-89.0895,"lo2":-89.0444,"dy":0.0017,"dx":0.0017,"nx":28,"ny":28,"refTime":"2024-04-12T21:00:00:Z","depth":"4","parameterNumber":3,"parameterNumberName":"V-component_of_CURRENTS"},"data":[0,0,0,0,0,0,0,0,0,0,0,0,0,0,0,0,0,0,0,0,0,0,0,0,0,0,0,0,0,0,0,0,0,0,0,0,0,0,0,0,0,0,0,0,0,0,0,0,0,0,0,0,0,0,0,0,0,0,-0.0286,-0.0286,0,-0.0211,-0.021,-0.0209,-0.017,-0.017,-0.017,-0.017,-0.005,-0.0046,-0.0043,0,0,0,0,0,0,0,0,0,0,0,0,0,-0.0338,-0.0337,-0.0286,-0.0286,-0.0285,-0.0211,-0.021,-0.0209,-0.017,-0.017,-0.017,-0.017,-0.0051,-0.0047,-0.0043,0,0,0,0,0,0,0,0,0,0,0,0,0,-0.0294,-0.0337,-0.0287,-0.0257,-0.0253,-0.0211,-0.021,-0.0209,-0.017,-0.017,-0.017,-0.017,-0.0052,-0.0047,-0.0042,-0.0012,0,0,-0.0028,-0.0026,0,0,0,0,0,0,0,0,-0.0296,-0.0292,-0.0262,-0.0259,-0.0255,-0.0201,-0.0184,-0.0141,-0.017,-0.0201,-0.017,-0.017,-0.0096,-0.0088,-0.0073,-0.0007,-0.0002,-0.0027,-0.0024,-0.0022,-0.0021,0,0,0,0,0,0,0,-0.0299,-0.0294,-0.0256,-0.0261,-0.0257,-0.0227,-0.0221,-0.0176,-0.0148,-0.0198,-0.0195,-0.0188,-0.0094,-0.0078,-0.007,0.0,-0.0027,-0.0023,-0.002,-0.0018,0.01,0.0101,0,0,0,0,0,0,-0.0313,-0.0298,-0.0258,-0.0254,-0.0277,-0.0227,-0.022,-0.0217,-0.0149,-0.014,-0.0188,-0.0186,-0.0086,-0.0076,-0.0066,-0.0023,-0.0022,-0.0018,-0.0015,0.01,0.0101,0.0101,0,0,0,0,0,0,-0.0315,-0.0311,-0.0261,-0.0274,-0.0266,-0.0226,-0.0223,-0.0216,-0.0201,-0.0142,-0.0132,-0.0182,-0.0086,-0.0072,-0.0024,-0.0018,-0.0016,-0.0011,0.01,0.01,0.0101,0.006,0,0,0,0,0,0,-0.0317,-0.0312,-0.0319,-0.0275,-0.0266,-0.024,-0.0223,-0.0214,-0.0197,-0.0195,-0.0133,-0.0122,-0.0085,-0.0031,-0.0019,-0.0012,-0.0008,0.01,0.01,0.0101,0.0061,0.0059,0.0058,0,0,0,0,0,-0.0319,-0.0325,-0.032,-0.0315,-0.0276,-0.0241,-0.0233,-0.0204,-0.0197,-0.0191,-0.0148,-0.0124,-0.002,-0.0027,-0.0013,-0.0004,0.0099,0.01,0.01,0.0062,0.006,0.0058,0,0,0,0,0,0,-0.035,-0.0321,-0.0314,-0.0312,-0.0282,-0.0234,-0.0228,-0.0208,-0.017,-0.0168,-0.0115,-0.01,-0.0059,-0.0025,-0.0034,0.0031,0.0042,0.0045,0.0008,0.0006,0.0004,-0.0008,-0.0004,0,0,0,0,0,-0.0362,-0.0362,-0.0324,-0.0324,-0.0312,-0.0272,-0.0257,-0.0235,-0.0195,-0.0179,-0.0137,-0.009,-0.0045,-0.0016,0.0025,0.0068,0.0097,0.0081,0.0079,0.0077,0.0077,0.0128,0.0131,0.0103,0.0103,0.0103,0,0,-0.0377,-0.0359,-0.0361,-0.0331,-0.0308,-0.0289,-0.0263,-0.0241,-0.0223,-0.017,-0.0136,-0.0097,-0.0037,0.0005,0.0027,0.0037,0.0099,0.0078,0.0076,0.0077,0.0129,0.0132,0.0134,0.0103,0.0103,0.0103,0,0,-0.0394,-0.0388,-0.0389,-0.0367,-0.0334,-0.0307,-0.0303,-0.0258,-0.0237,-0.0198,-0.0158,-0.0112,-0.0048,0.0001,0.0033,0.0048,0.0081,0.0054,0.0045,0.0095,0.0097,0.01,0.013,0.0136,0.006,0.006,0.006,0,-0.0414,-0.0409,-0.0383,-0.0372,-0.036,-0.0318,-0.0311,-0.0278,-0.0223,-0.0202,-0.0194,-0.0094,-0.0047,0.0019,0.0021,0.0045,0.0067,0.0048,0.0092,0.0095,0.0099,0.0129,0.0136,0.0058,0.0059,0.0059,0.0059,0,-0.0424,-0.0422,-0.042,-0.0396,-0.0377,-0.0366,-0.032,-0.0297,-0.0271,-0.0233,-0.0176,-0.0109,-0.0049,-0.0027,0.0004,0.0054,0.0058,0.0076,0.0094,0.0099,0.013,0.0138,0.0056,0.0056,0.0057,0.0057,0,0,-0.0466,-0.0436,-0.0437,-0.0435,-0.0393,-0.0379,-0.0348,-0.0305,-0.0282,-0.0229,-0.0193,-0.0113,-0.0082,-0.0043,0.0004,0.0052,0.0093,0.0067,0.0071,0.0091,0.0185,0.0163,0.017,0.0115,0.0116,0.0117,0.0193,0,-0.0485,-0.0484,-0.0457,-0.0455,-0.045,-0.0407,-0.0382,-0.0336,-0.029,-0.0243,-0.0168,-0.0117,-0.0085,-0.0058,-0.0006,0.0069,0.0113,0.007,0.0183,0.0186,0.0162,0.0179,0.0122,0.0199,0.02,0.0202,0.0203,0,-0.0504,-0.0502,-0.0511,-0.0488,-0.0483,-0.0476,-0.0436,-0.0405,-0.0323,-0.0284,-0.0217,-0.0157,-0.0074,-0.0054,0.0076,0.0042,0.0105,0.0162,0.0166,0.0167,0.018,0.0198,0.0217,0.0216,0.0215,0.0214,0.0213,0,-0.055,-0.0538,-0.0554,-0.0548,-0.0514,-0.0514,-0.0496,-0.0427,-0.0398,-0.0313,-0.0275,-0.0174,-0.0117,-0.0026,0.009,0.0081,0.0226,0.0234,0.0277,0.0275,0.0289,0.0285,0.0323,0.0323,0.0323,0.0322,0.0322,0,-0.0576,-0.0588,-0.0586,-0.0594,-0.0614,-0.0571,-0.0567,-0.0524,-0.0456,-0.0404,-0.0309,-0.0238,-0.0108,-0.0004,0.0085,0.0202,0.0226,0.0276,0.0298,0.0268,0.0262,0.0294,0.0289,0.0325,0.0325,0.0324,0.0324,0,-0.061,-0.0609,-0.0631,-0.0629,-0.0638,-0.0654,-0.0633,-0.0614,-0.0539,-0.0468,-0.0441,-0.0288,-0.0145,-0.0016,0.0147,0.0199,0.0312,0.0349,0.0297,0.0315,0.0325,0.0318,0.0395,0.0395,0.0395,0.0395,0.0395,0,-0.0621,-0.0639,-0.0676,-0.0704,-0.0711,-0.0729,-0.0735,-0.0676,-0.0633,-0.0481,-0.0439,-0.0288,-0.0175,0.0036,0.0161,0.0319,0.0342,0.0378,0.0358,0.0322,0.0336,0.0328,0.0321,0.0395,0.0395,0.0395,0.0395,0,-0.0642,-0.0666,-0.0688,-0.0753,-0.0786,-0.0804,-0.0793,-0.0761,-0.0654,-0.0597,-0.0417,-0.0279,-0.0114,0.0045,0.0166,0.0283,0.0339,0.0378,0.0379,0.036,0.0323,0.0335,0.0328,0.0395,0.0395,0.0395,0.0395,0,-0.0659,-0.0689,-0.0732,-0.0783,-0.0836,-0.0842,-0.0832,-0.0754,-0.07,-0.0512,-0.0457,-0.0255,-0.014,0.0029,0.0148,0.0249,0.027,0.0278,0.0285,0.0286,0.0227,0.0161,0.0206,0,0,0,0,0,-0.0658,-0.0694,-0.0752,-0.0803,-0.0858,-0.0877,-0.0848,-0.0812,-0.0704,-0.0587,-0.0511,-0.0345,-0.0127,-0.0022,0.0076,0.0123,0.0262,0.0236,0.0268,0.0395,0.0395,0.0341,0,0,0,0,0,0,-0.0655,-0.0713,-0.0748,-0.0811,-0.0845,-0.0885,-0.0861,-0.079,-0.0701,-0.0581,-0.0461,-0.0362,-0.0155,-0.0192,0.0064,0.0099,0.0124,0.0348,0.0349,0.0395,0.0395,0.0395,0.034,0,0,0,0,0]}]]